User: anonymous   Login
Location: Unspecified
(0.0000°N, 0.0000°E)
Time: 04:50:01
(UTC+00:00)
Language:

NOSS 2-2 (E) - Orbit

View from above orbital plane
View from above orbital plane
View from above satellite
View from above satellite

Ground track
Ground track

The orbit data is extracted from the following two-line orbital elements,

1 21809U 91076E   15168.01929922 0.00000100  00000-0  43758-4 0    03
2 21809  63.3680 184.9968 0684000  14.8696 345.1304 13.41134456    07
Epoch (UTC): 17 June 2015 00:27:47
Eccentricity: 0.0684000
inclination: 63.3680°
perigee height: 593 km
apogee height: 1617 km
right ascension of ascending node: 184.9968°
argument of perigee: 14.8696°
revolutions per day: 13.41134456
mean anomaly at epoch: 345.1304°
orbit number at epoch: 0

The dashed part of the orbit path shows where the satellite is in the earth's shadow,  

DLR